Terminal Aerodrome Forecast
Issued by NWS

Home | Current Version | Previous Version | Text Only | Print | Product List | Glossary On
Versions: 1 2 3 4 5 6 7 8 9 10 11 12 13 14 15 16 17 18 19 20 21 22 23 24 25 26 27 28 29 30 31 32 33 34 35 36 37 38 39 40 41 42 43 44 45 46 47 48 49 50
000
FTUS46 KPQR 261730
TAFONP
TAF
KONP 261730Z 2618/2718 12006KT P6SM OVC200
     FM262000 18013G23KT P6SM SCT020 OVC200
     FM270300 19020G30KT 6SM HZ SCT020 OVC120
     FM270800 19025G35KT P6SM OVC060
     FM271400 19020G30KT 5SM -RA BR BKN022 OVC035=

USA.gov is the U.S. government's official web portal to all federal, state and local government web resources and services.